RH
64 75 92 97 95 93 95 96 95 89 91 92 95 96 90 86 87 89 89 83 77 78 82 78 83 93 94 96 95 95 92 83 82 78 84 90 92 97 82 79 88 95 92
59 79 97 95 93 87 86 94 93 92 87 90 92 93 96 82 88 84 90 91 85 76 85 81 84 91 92 95 95 93 88 83 86 88 91 92 92 90 81 86 89 97 94
62 80 95 90 97 91 88 84 90 90 88 89 94 96 95 87 82 94 92 96 87 76 80 78 79 93 96 93 91 92 85 83 83 83 86 90 95 89 90 82 89 92 94
63 77 83 97 96 97 93 90 90 89 90 91 92 82 86 88 88 92 94 90 85 82 77 79 83 90 90 90 89 86 82 81 78 80 76 81 88 95 85 80 93 95 94
63 73 81 97 93 93 89 91 92 92 93 89 90 78 88 84 74 73 79 79 77 77 74 80 85 81 90 88 88 86 79 74 76 78 81 87 91 90 94 96 96 95 93
62 67 85 97 93 88 83 80 89 91 90 91 84 77 78 82 74 74 76 61 63 74 74 77 86 85 88 89 94 89 74 74 81 76 80 91 97 92 98 88 89 89 93
59 63 91 98 95 87 85 81 89 93 93 89 83 83 90 82 91 81 79 73 65 74 80 81 88 90 88 91 92 81 76 82 81 81 89 93 96 97 94 86 84 88 87
57 66 81 99 98 88 84 83 87 95 94 89 84 84 93 94 96 85 77 73 78 78 78 79 93 91 94 92 83 81 82 84 88 90 94 96 91 98 98 96 96 94 98
56 65 68 86 93 90 88 86 88 91 93 88 90 82 83 92 97 90 84 77 70 65 73 84 97 95 94 92 86 83 75 85 93 94 97 96 96 99 100 100 99 99 99
56 60 63 66 78 81 84 84 90 89 85 89 90 86 84 89 92 90 86 80 79 71 73 98 90 97 94 87 81 76 74 88 96 96 98 97 99 100 100 100 98 98 98
65 67 64 64 67 69 68 82 85 82 81 88 91 85 88 97 92 82 82 93 90 83 94 92 97 85 77 74 76 80 82 89 100 100 100 98 100 100 100 98 100 99 99
70 82 76 74 67 63 75 90 98 86 90 94 91 95 95 98 91 80 74 94 89 87 99 98 99 99 87 90 82 82 98 100 100 100 100 99 100 100 100 100 100 99 99
79 85 86 75 68 80 86 94 93 95 86 87 87 95 98 100 99 100 99 100 99 86 99 98 98 98 96 95 95 99 100 99 100 99 99 96 99 100 100 99 99 100 100
84 89 89 81 75 83 87 86 89 88 87 96 98 100 100 98 99 100 100 99 98 99 94 100 99 99 96 95 96 99 100 99 100 100 97 96 97 99 99 98 97 97 97
78 90 90 86 77 82 84 81 83 93 88 100 98 99 100 97 100 100 100 100 98 99 100 99 100 100 99 99 100 99 99 98 95 95 94 90 92 91 91 89 89 85 87
73 88 94 86 75 82 91 90 86 93 95 100 97 99 96 99 96 100 100 98 99 99 99 99 100 99 98 92 89 87 90 92 93 93 90 81 80 89 88 84 89 86 84
64 78 94 94 75 83 92 93 97 94 98 99 95 95 90 90 96 96 99 100 100 98 97 96 94 92 91 88 83 78 78 79 81 81 80 76 80 85 86 78 83 83 83
62 72 97 93 79 82 95 92 96 96 97 97 96 95 96 97 97 97 96 100 100 100 95 93 91 88 87 86 84 78 75 74 74 76 76 77 82 88 88 82 83 80 84
58 73 99 93 84 84 95 91 91 99 95 93 91 90 96 99 99 99 97 96 94 92 92 91 92 86 82 79 77 75 74 74 74 71 71 72 75 85 92 89 87 83 83
88 78 98 99 93 86 93 93 92 92 84 81 81 83 86 94 96 95 95 92 92 93 93 92 90 87 78 74 72 69 68 68 66 63 61 60 69 76 83 81 85 88 87
86 96 91 100 93 92 91 95 93 89 79 75 76 80 75 64 78 84 91 88 89 89 91 91 89 80 71 72 66 59 53 52 55 54 49 44 48 58 60 72 82 89 92
88 98 100 100 94 97 90 89 90 82 75 71 70 76 72 60 48 47 75 90 88 90 92 90 85 81 74 73 72 69 72 61 47 42 38 37 35 38 44 49 49 69 71
89 99 100 99 99 98 90 88 85 77 73 71 71 71 68 61 50 40 42 64 79 82 85 80 75 77 78 72 68 60 74 72 52 44 39 32 34 34 34 34 43 54 64
91 98 100 100 100 100 93 92 84 78 73 72 72 69 64 61 53 45 38 45 64 75 79 80 76 74 73 68 53 35 36 47 56 54 43 37 34 34 38 35 42 43 44
94 97 100 100 100 100 100 95 85 78 71 69 69 66 58 52 44 42 36 38 52 65 75 79 77 72 66 65 48 39 35 36 32 43 52 44 38 37 40 39 42 42 46
90 95 99 100 100 100 100 97 88 79 71 69 68 64 56 49 42 40 37 38 41 54 67 71 73 72 64 59 42 32 33 32 35 34 38 42 40 42 44 43 43 43 44
Wind_Speed
9 15 21 18 17 15 13 13 13 13 14 11 10 9 9 8 9 9 9 9 10 11 12 13 15 14 14 14 14 14 15 16 18 19 20 21 22 23 26 25 23 22 23
14 17 22 19 17 18 15 13 14 14 14 12 10 10 8 10 10 10 10 10 10 12 12 15 17 16 16 16 17 16 17 18 20 21 22 22 24 25 25 23 24 24 25
15 18 20 19 17 18 15 14 12 14 13 12 10 10 10 9 11 11 10 10 10 12 13 14 18 17 18 18 19 19 20 22 22 22 22 19 21 24 23 24 26 26 26
14 18 19 19 16 16 14 13 12 13 12 11 11 10 9 10 10 12 12 12 13 14 13 15 18 20 20 21 21 22 24 24 24 24 19 20 20 22 24 26 25 26 26
15 17 18 20 17 16 13 12 11 12 11 10 10 11 11 12 11 11 11 10 11 14 16 16 20 21 22 23 23 23 26 26 22 19 21 20 21 23 24 24 24 26 26
15 16 18 19 17 18 15 11 11 11 11 10 11 13 13 13 13 14 14 11 10 13 16 18 23 23 25 25 26 25 27 21 15 21 20 19 20 23 23 25 25 26 27
15 15 14 18 17 16 16 14 11 10 10 10 11 12 12 13 12 15 14 14 11 12 14 19 27 28 27 27 26 28 26 18 18 19 18 18 22 23 24 25 24 24 26
15 14 14 16 16 15 13 14 13 12 9 9 10 12 13 14 14 12 13 10 10 11 11 19 32 29 25 26 25 28 23 21 18 18 19 21 23 23 24 24 23 24 25
15 14 13 13 14 15 13 13 12 11 10 9 11 11 12 12 14 18 18 16 14 12 10 11 29 32 27 25 27 26 23 21 21 20 23 24 25 26 27 27 27 27 28
15 15 14 13 12 12 10 12 11 10 9 11 11 11 12 12 12 15 19 19 18 16 18 25 30 26 26 26 24 24 21 22 23 24 28 28 29 30 31 31 30 29 28
15 14 15 14 13 12 10 10 10 9 11 10 7 8 8 7 5 11 16 16 17 21 27 30 36 32 26 24 21 22 19 19 27 33 31 31 31 31 30 29 28 27 26
18 15 15 15 15 14 10 11 11 11 9 9 8 10 9 9 6 0 15 22 17 20 32 37 38 34 32 30 26 24 26 31 33 33 33 32 30 29 29 27 26 25 24
17 17 17 17 16 15 15 15 11 10 11 9 11 9 14 15 15 14 20 25 29 34 33 38 38 35 33 30 27 30 34 35 34 36 30 29 28 27 26 24 23 22 22
20 18 18 17 17 17 16 14 13 11 10 12 14 10 17 16 16 19 24 27 26 43 40 36 35 33 32 29 31 32 36 37 35 34 30 29 27 25 25 23 21 20 19
19 19 21 20 19 19 16 15 13 11 11 11 11 11 14 18 24 30 34 35 33 38 42 38 38 36 33 32 28 32 35 35 36 34 30 27 27 24 23 22 21 20 20
20 20 22 19 19 19 17 16 14 13 12 11 14 16 14 19 22 24 29 29 30 39 38 38 35 35 33 31 27 26 27 29 29 29 28 26 24 22 21 21 19 19 18
18 19 24 21 19 19 18 20 16 14 13 14 17 17 16 19 20 24 28 32 36 37 37 35 36 35 34 31 28 25 25 25 24 24 24 24 24 22 20 19 18 18 17
16 18 21 26 19 20 18 21 17 16 15 17 16 14 15 19 24 25 30 33 35 39 40 38 36 31 31 27 24 24 22 21 21 23 22 20 19 20 21 18 17 17 16
14 15 20 28 22 21 18 22 18 16 17 16 14 17 18 20 24 30 32 35 37 39 39 38 30 29 29 28 25 27 23 21 19 20 19 19 17 15 18 20 19 17 15
27 9 17 26 24 23 19 18 18 21 18 16 16 16 20 21 24 29 32 33 35 36 36 33 31 25 31 29 29 26 24 20 18 17 17 15 16 16 15 16 16 18 15
26 23 13 23 29 24 23 21 21 20 19 18 18 20 20 21 23 27 32 34 34 33 31 32 29 30 25 34 25 25 22 17 14 14 13 13 14 14 13 14 13 12 15
29 31 22 12 31 24 24 21 20 21 19 19 19 22 21 23 25 26 31 33 34 33 30 30 32 26 26 21 13 15 4 7 10 10 10 10 11 12 12 11 12 11 10
32 34 30 23 19 28 24 23 22 20 18 20 20 22 22 22 24 24 26 27 29 30 31 30 31 33 23 16 23 7 4 3 10 4 6 8 9 10 10 11 11 11 10
33 33 32 27 21 15 31 27 30 27 25 23 24 23 24 24 24 25 27 27 26 25 27 27 27 25 27 21 15 7 6 16 3 4 4 7 8 9 9 9 8 9 8
32 33 33 32 22 15 31 29 32 27 23 24 23 24 24 24 24 26 28 29 29 25 25 25 27 20 27 25 20 14 13 11 10 5 4 8 7 8 8 8 9 8 8
34 35 34 35 30 20 27 32 32 31 29 26 26 26 24 24 25 24 25 26 27 28 28 26 24 23 23 26 21 16 16 7 12 5 4 11 11 8 7 7 7 6 7
Wind_Direction
173 168 168 167 170 168 182 186 189 192 199 203 203 205 204 204 203 199 200 203 201 197 184 182 168 156 148 144 138 139 139 137 137 140 137 131 129 128 126 123 121 120 116
166 168 165 167 170 169 181 191 193 200 201 205 205 204 207 208 211 207 205 207 209 204 193 183 173 158 153 150 148 143 140 139 138 135 134 131 130 130 127 125 124 122 117
156 164 165 167 171 173 182 189 203 196 198 201 198 200 210 214 213 208 206 207 207 204 203 195 181 160 159 154 150 145 141 138 137 137 127 130 132 130 132 132 125 121 116
159 163 167 171 169 172 179 191 196 197 193 197 199 204 208 212 209 208 208 208 202 202 199 195 182 168 163 159 152 148 143 136 132 126 134 136 138 136 136 132 125 123 119
163 163 171 168 167 174 182 190 192 194 195 196 198 205 209 215 215 216 207 199 204 202 195 191 190 172 165 158 153 149 145 138 134 131 128 132 137 138 134 132 128 125 123
165 163 179 167 170 174 183 199 200 197 201 197 203 215 220 221 220 216 201 192 208 208 199 192 187 175 164 160 153 150 145 141 134 131 127 127 132 136 133 131 129 127 118
167 166 170 170 173 176 182 198 210 204 201 201 213 219 220 222 217 217 226 237 228 209 201 190 184 169 166 162 154 148 143 131 125 124 128 127 128 125 121 120 121 119 112
172 170 171 174 177 180 188 201 217 213 208 206 217 225 227 227 222 222 234 231 227 219 205 198 189 154 167 154 150 145 142 132 126 130 127 128 128 121 117 115 112 111 109
176 175 175 184 182 184 192 203 216 217 213 217 222 228 233 229 227 225 223 231 234 232 204 182 139 144 147 141 153 148 139 126 121 126 124 124 121 115 112 111 107 106 104
181 182 181 178 180 181 189 203 214 210 217 220 226 224 219 220 229 238 230 226 226 219 196 165 148 154 141 152 148 140 135 125 121 124 120 118 109 106 104 102 102 97 98
189 187 186 183 181 176 177 193 221 217 212 211 210 206 196 144 201 233 226 208 194 196 206 175 156 162 151 141 146 137 131 126 119 116 112 108 103 101 100 99 95 93 93
192 192 183 179 174 174 172 161 155 165 151 145 153 148 160 126 101 240 217 192 191 153 151 151 141 149 155 151 144 141 120 119 110 106 108 103 98 98 96 93 92 92 93
195 191 185 178 172 166 164 155 163 159 147 150 156 145 160 147 104 104 153 163 153 157 129 141 152 153 146 138 133 122 117 109 106 103 99 101 97 96 96 94 93 95 94
194 193 189 181 175 175 169 164 165 162 159 177 167 159 167 166 122 120 125 164 123 129 146 146 144 140 134 134 130 118 111 109 104 102 101 98 96 97 96 99 98 95 95
198 195 193 186 183 178 172 171 165 161 157 155 153 160 147 154 136 122 130 133 136 131 139 140 137 132 124 122 120 110 112 111 112 108 104 101 96 99 101 99 99 99 98
199 195 199 195 186 177 172 161 162 159 152 148 153 153 158 148 149 139 137 134 135 138 138 138 133 129 123 120 113 116 113 109 106 105 107 103 102 99 100 101 100 100 101
206 189 199 194 188 182 173 165 160 154 154 158 157 156 162 169 165 155 144 145 145 145 144 139 132 126 121 122 111 115 115 114 111 107 107 114 110 103 101 102 103 102 101
214 200 192 196 195 183 174 171 158 167 162 160 168 169 171 173 168 163 153 149 148 147 144 137 131 117 115 112 110 107 107 110 111 110 112 114 109 105 101 104 104 106 104
224 202 193 201 197 183 173 170 158 162 158 158 162 168 167 165 165 162 156 151 149 145 142 138 127 124 118 114 106 109 108 106 109 111 112 111 111 111 113 115 108 106 105
353 196 206 200 201 183 170 162 157 158 161 165 163 161 163 163 160 155 153 152 153 145 140 133 128 122 124 118 111 103 108 102 107 108 109 108 112 111 111 114 113 107 101
351 356 299 193 200 181 169 164 158 169 164 163 163 161 158 156 163 162 155 154 156 152 144 140 131 130 123 128 109 91 84 91 96 102 108 112 113 117 119 117 111 116 109
345 344 332 333 200 196 174 176 172 171 170 164 161 161 162 160 156 161 163 161 160 156 152 149 146 134 140 143 132 113 118 86 83 92 111 117 117 123 121 121 123 125 120
349 342 336 319 335 197 175 173 169 170 166 163 168 165 164 164 162 160 161 161 165 163 160 155 151 148 154 150 152 124 141 153 129 111 119 129 127 125 132 133 134 135 138
347 342 338 331 303 260 186 174 173 174 173 176 170 167 166 170 170 170 167 162 163 165 164 161 159 157 158 151 157 142 125 133 151 149 165 147 143 143 139 134 142 144 146
352 349 344 340 333 271 189 178 177 177 181 172 169 168 168 168 171 175 171 170 167 164 163 164 163 168 171 162 166 141 123 119 133 146 144 160 148 153 150 150 158 153 157
357 358 355 351 347 0 199 186 188 185 174 173 172 171 170 168 168 172 171 171 171 169 169 169 168 167 173 172 173 156 151 157 169 145 121 146 139 165 161 162 160 168 164